Regional Weather Roundup
Issued by NWS Green Bay, WI

Home | Current Version | Previous Version | Graphics & Text | Print | Product List | Glossary Off
Versions: 1 2 3 4 5 6 7 8 9 10 11 12 13 14 15 16 17 18 19 20 21 22 23 24 25 26 27 28 29 30 31 32 33 34 35 36 37 38 39 40 41 42 43 44 45 46 47 48 49 50

488
ASUS43 KGRB 201800
RWRGRB

NORTH-CENTRAL AND NORTHEAST WISCONSIN REGIONAL WEATHER ROUNDUP
NATIONAL WEATHER SERVICE GREEN BAY WI
100 PM CDT FRI APR 20 2018

WIZ005-009-010>012-018-019-201900-
NORTH CENTRAL WISCONSIN

CITY           SKY/WX    TMP DP  RH WIND       PRES   REMARKS
IRONWOOD       FAIR      53  12  19 CALM      30.44F
MANITOWISH WTR NOT AVBL
ARBOR VITAE    NOT AVBL
EAGLE RIVER    FAIR      52   7  16 S5        30.42F
LAND O LAKES   FAIR      54   7  15 W7        30.44F
RHINELANDER    FAIR      53  13  20 W7        30.44F
PHILLIPS       FAIR      51  17  26 S5        30.45S
ANTIGO         NOT AVBL
TOMAHAWK       NOT AVBL
MERRILL          N/A     52  15  23 SW6       30.47S
$$

WIZ013-073-201900-
NORTHEAST WISCONSIN

CITY           SKY/WX    TMP DP  RH WIND       PRES   REMARKS
IRON MOUNTAIN  FAIR      57  12  17 CALM      30.41F
MARINETTE      FAIR      53  12  19 SW8       30.47F
$$

WIZ017-030-035>037-045-201900-
CENTRAL WISCONSIN

CITY           SKY/WX    TMP DP  RH WIND       PRES   REMARKS
MEDFORD        NOT AVBL
WAUSAU         FAIR      51  12  21 W7        30.45F
MOSINEE        PTSUNNY   52  19  28 SW5       30.48F
MARSHFIELD     FAIR      48  16  27 NW5       30.47S
WISC RAPIDS    FAIR      55  16  21 CALM      30.49F
STEVENS POINT  NOT AVBL
WAUPACA        FAIR      57  10  15 CALM      30.48F
SHAWANO        FAIR      57  10  15 SW3       30.47F
CLINTONVILLE   FAIR      50  16  26 S3        30.48F
WAUTOMA        FAIR      52  18  26 W6        30.48F
$$

WIZ038-039-048-051-201900-
FOX VALLEY

CITY           SKY/WX    TMP DP  RH WIND       PRES   REMARKS
NWS GREEN BAY  FAIR      45  27  49 S6        30.49F
APPLETON       PTSUNNY   50  12  22 VRB5      30.47F
OSHKOSH        FAIR      46  25  43 S5        30.49F
FOND DU LAC    FAIR      47  22  37 S6        30.49F
$$

WIZ022-050-052-201900-
EAST CENTRAL WISCONSIN

CITY           SKY/WX    TMP DP  RH WIND       PRES   REMARKS
EPHRAIM        NOT AVBL
WASHINGTON ISL NOT AVBL
STURGEON BAY   FAIR      50  13  22 S7        30.49F
MANITOWOC      FAIR      47  21  35 S9        30.50F
SHEBOYGAN      FAIR      50  26  39 S7        30.49F
$$

LMZ563-521-522-541>543-201900-
LAKESHORE

STATION/POSITION TIME  TEMP    WIND        PRES    VSBY  WAVE
                       AIR SEA DIR/SP/G                  HT/PER
                 (UTC) (F)     (DEG/KT/KT) (MB)    (MI)  (FT/S)
SHEBOYGAN LKSHOR 1700   42     150/ 11/ 11 1033.6R
KEWAUNEE LKSHORE 1730   41     180/  6/  7 1032.0F
NORTHPORT PIER   1740   38                 1031.5F
SISTER BAY LKSHO 1727   47        CALM       N/A
MENOMINEE LKSHOR 1730   45     170/  9/ 11 1031.5F
$$




USA.gov is the U.S. government's official web portal to all federal, state and local government web resources and services.